Location: Dannhausen
(51.8650°N, 10.1026°E)
Time: 00:50:32
(UTC+00:00)

Cosmos 2233 Rocket - Pass Details

Date: 18 August 2020
Orbit: 952 x 992 km, 82.9° (Epoch: 26 September)

Event Time Altitude Azimuth Distance (km) Brightness Sun altitude
Exits shadow 22:01:37 34° 204° (SSW) 1,572 4.7 -23.0°
Maximum altitude 22:04:32 73° 282° (WNW) 1,037 4.1 -23.2°
Drops below altitude 10° 22:10:53 10° 7° (N) 2,760 7.2 -23.5°
Sets 22:13:26 0° 10° (N) 3,709 8.0 -23.7°
